Simultaneous Nadir Overpasses (SNOs) Predictions

Prediction of SNOs between GOES-16 and NOAA-19 Satellite Orbit:

Table of predicted SNOs for the next 14.0 days since TLE Epoch: 5/23/2025
Index Date Time (GOES-16) GOES-16 Lat,Lon NOAA-19 Lat,Lon Distance(km) Time Diff (sec)
1 05/26/2025 04:30:27 -0.05, -98.77 -0.45,-100.41 186.66 80
2 05/27/2025 04:15:12 -0.05, -99.30 0.39, -97.37 219.77 80
3 05/29/2025 16:36:27 0.04,-100.65 0.29,-101.86 136.75 80
4 05/30/2025 16:21:10 0.04,-101.18 -0.48, -98.81 269.77 80
5 06/02/2025 04:42:39 -0.03,-102.48 -0.23,-103.35 98.94 80
6 06/03/2025 04:27:23 -0.03,-103.01 0.56,-100.30 308.27 80
7 06/04/2025 17:01:14 0.03,-103.86 0.96,-107.83 453.95 80
8 06/05/2025 16:48:38 0.02,-104.39 0.13,-104.79 46.62 80
9 06/06/2025 16:33:23 0.02,-104.92 -0.71,-101.76 360.61 80
